Powrót do katalogu

THURAYA 4

AktywnyŁącznośćGEO
NORAD 62483·PAYLOAD·🇦🇪 UAE

Wystrzelony Jan 4, 2025 z Cape Canaveral Space Force Station

Loading…

TLE

ŚwieżeSource: Space-Track

Epoka: Sep 14, 2026, 14:00 UTC

1 62483U 25001A   26257.58394105  .00000131  00000-0  00000-0 0  9993
2 62483   0.0190 105.7478 0000438 274.2982 228.0255  1.00271920  5074

Śledź THURAYA 4 w czasie rzeczywistym z AllMySat

Download on the App Store